| time (UTC) | temp F | wind direction | speed MPH | gust MPH | rain 1hr in | rain 24hr in | rain mn in | humidity % | barometer mb |
| 20260510005233 | 57 | 349 | 4.0 | 5.0 | 0.00 | 0.00 | 0.00 | 63 | 1011.8 |
| 20260510004333 | 58 | 3 | 1.0 | 3.0 | 0.00 | 0.00 | 0.00 | 63 | 1011.9 |
| 20260510002533 | 58 | 20 | 3.0 | 4.0 | 0.00 | 0.00 | 0.00 | 63 | 1012.0 |
| 20260510001633 | 58 | 71 | 2.0 | 4.0 | 0.00 | 0.00 | 0.00 | 63 | 1012.2 |
| 20260510000733 | 58 | 88 | 2.0 | 4.0 | 0.00 | 0.00 | 0.00 | 64 | 1012.2 |
| 20260509234933 | 58 | 329 | 1.0 | 2.0 | 0.00 | 0.00 | 0.00 | 64 | 1012.6 |
| 20260509234033 | 57 | 328 | 2.0 | 3.0 | 0.00 | 0.00 | 0.00 | 64 | 1012.5 |
| 20260509233133 | 57 | 323 | 1.0 | 2.0 | 0.00 | 0.00 | 0.00 | 64 | 1012.6 |
| 20260509232233 | 58 | 330 | 0.0 | 2.0 | 0.00 | 0.00 | 0.00 | 63 | 1012.6 |
| 20260509231333 | 58 | 357 | 1.0 | 4.0 | 0.00 | 0.00 | 0.00 | 63 | 1012.6 |
| 20260509224633 | 58 | 314 | 2.0 | 3.0 | 0.00 | 0.00 | 0.00 | 63 | 1012.6 |
| 20260509223733 | 58 | 327 | 2.0 | 3.0 | 0.00 | 0.00 | 0.00 | 62 | 1012.6 |
| 20260509222833 | 58 | 332 | 0.0 | 2.0 | 0.00 | 0.00 | 0.00 | 62 | 1012.6 |
| 20260509220133 | 59 | 352 | 0.0 | 2.0 | 0.00 | 0.00 | 0.00 | 61 | 1012.4 |
| 20260509215233 | 60 | 335 | 1.0 | 4.0 | 0.00 | 0.00 | 0.00 | 61 | 1012.4 |
| 20260509214333 | 60 | 357 | 1.0 | 4.0 | 0.00 | 0.00 | 0.00 | 61 | 1012.5 |
| 20260509213433 | 60 | 46 | 1.0 | 5.0 | 0.00 | 0.00 | 0.00 | 61 | 1012.5 |
| 20260509212533 | 61 | 12 | 2.0 | 4.0 | 0.00 | 0.00 | 0.00 | 61 | 1012.5 |
| 20260509211633 | 61 | 355 | 3.0 | 6.0 | 0.00 | 0.00 | 0.00 | 61 | 1012.6 |
| 20260509210733 | 61 | 330 | 1.0 | 4.0 | 0.00 | 0.00 | 0.00 | 61 | 1012.8 |
| 20260509205833 | 61 | 314 | 2.0 | 4.0 | 0.00 | 0.00 | 0.00 | 62 | 1012.8 |
| 20260509204933 | 61 | 25 | 2.0 | 6.0 | 0.00 | 0.00 | 0.00 | 62 | 1012.9 |
| 20260509204033 | 62 | 70 | 3.0 | 6.0 | 0.00 | 0.00 | 0.00 | 63 | 1012.8 |
| 20260509203133 | 61 | 29 | 2.0 | 4.0 | 0.00 | 0.00 | 0.00 | 63 | 1012.9 |
| 20260509202233 | 62 | 41 | 2.0 | 6.0 | 0.00 | 0.00 | 0.00 | 63 | 1013.0 |
| 20260509201333 | 62 | 84 | 2.0 | 6.0 | 0.00 | 0.00 | 0.00 | 62 | 1012.7 |
| 20260509200433 | 63 | 85 | 4.0 | 6.0 | 0.00 | 0.00 | 0.00 | 63 | 1012.5 |
| 20260509195533 | 63 | 91 | 2.0 | 6.0 | 0.00 | 0.00 | 0.00 | 63 | 1012.5 |
| 20260509193733 | 64 | 90 | 7.0 | 8.0 | 0.00 | 0.00 | 0.00 | 60 | 1012.2 |
| 20260509191933 | 64 | 46 | 3.0 | 5.0 | 0.00 | 0.00 | 0.00 | 59 | 1011.8 |
| 20260509191033 | 64 | 88 | 3.0 | 5.0 | 0.00 | 0.00 | 0.00 | 59 | 1011.8 |
| 20260509185233 | 65 | 83 | 2.0 | 6.0 | 0.00 | 0.00 | 0.00 | 58 | 1011.8 |
| 20260509184333 | 66 | 96 | 4.0 | 8.0 | 0.00 | 0.00 | 0.00 | 57 | 1011.5 |
| 20260509182533 | 68 | 36 | 4.0 | 9.0 | 0.00 | 0.00 | 0.00 | 55 | 1011.3 |
| 20260509180733 | 70 | 24 | 5.0 | 10.0 | 0.00 | 0.00 | 0.00 | 53 | 1011.3 |
| 20260509175833 | 72 | 52 | 4.0 | 8.0 | 0.00 | 0.00 | 0.00 | 53 | 1011.3 |
| 20260509174933 | 72 | 123 | 3.0 | 8.0 | 0.00 | 0.00 | 0.00 | 52 | 1011.3 |
| 20260509174033 | 73 | 31 | 2.0 | 8.0 | 0.00 | 0.00 | 0.00 | 50 | 1011.3 |
| 20260509171333 | 71 | 83 | 5.0 | 8.0 | 0.00 | 0.00 | 0.00 | 52 | 1011.1 |
| 20260509170433 | 72 | 23 | 2.0 | 12.0 | 0.00 | 0.00 | 0.00 | 51 | 1011.2 |
| 20260509165533 | 74 | 83 | 4.0 | 7.0 | 0.00 | 0.00 | 0.00 | 49 | 1011.0 |
| 20260509164633 | 75 | 31 | 2.0 | 9.0 | 0.00 | 0.00 | 0.00 | 47 | 1011.1 |
| 20260509163733 | 76 | 90 | 3.0 | 12.0 | 0.00 | 0.00 | 0.00 | 48 | 1010.9 |
| 20260509162833 | 75 | 338 | 5.0 | 8.0 | 0.00 | 0.00 | 0.00 | 50 | 1011.0 |
| 20260509161933 | 73 | 71 | 2.0 | 11.0 | 0.00 | 0.00 | 0.00 | 47 | 1011.0 |
| 20260509161033 | 76 | 333 | 4.0 | 10.0 | 0.00 | 0.00 | 0.00 | 44 | 1011.1 |
| 20260509160133 | 78 | 346 | 3.0 | 5.0 | 0.00 | 0.00 | 0.00 | 45 | 1011.1 |
| 20260509155233 | 77 | 12 | 4.0 | 6.0 | 0.00 | 0.00 | 0.00 | 44 | 1011.3 |
| 20260509154335 | 77 | 79 | 2.0 | 8.0 | 0.00 | 0.00 | 0.00 | 43 | 1011.2 |
| 20260509153433 | 78 | 47 | 3.0 | 6.0 | 0.00 | 0.00 | 0.00 | 44 | 1011.2 |
| 20260509152533 | 78 | 2 | 4.0 | 7.0 | 0.00 | 0.00 | 0.00 | 43 | 1011.4 |
| 20260509151633 | 79 | 358 | 4.0 | 8.0 | 0.00 | 0.00 | 0.00 | 43 | 1011.6 |
| 20260509150733 | 78 | 83 | 5.0 | 8.0 | 0.00 | 0.00 | 0.00 | 44 | 1011.6 |
| 20260509145833 | 77 | 91 | 3.0 | 11.0 | 0.00 | 0.00 | 0.00 | 44 | 1011.7 |
| 20260509144933 | 77 | 86 | 7.0 | 11.0 | 0.00 | 0.00 | 0.00 | 42 | 1011.7 |
| 20260509144033 | 79 | 30 | 3.0 | 8.0 | 0.00 | 0.00 | 0.00 | 44 | 1011.7 |
| 20260509143133 | 79 | 85 | 6.0 | 11.0 | 0.00 | 0.00 | 0.00 | 43 | 1011.7 |
| 20260509142233 | 78 | 85 | 3.0 | 8.0 | 0.00 | 0.00 | 0.00 | 45 | 1011.8 |
| 20260509141333 | 78 | 79 | 5.0 | 10.0 | 0.00 | 0.00 | 0.00 | 46 | 1011.8 |
| 20260509140433 | 77 | 314 | 3.0 | 4.0 | 0.00 | 0.00 | 0.00 | 46 | 1012.1 |
| 20260509135533 | 77 | 88 | 2.0 | 8.0 | 0.00 | 0.00 | 0.00 | 45 | 1012.2 |
| 20260509134633 | 79 | 90 | 6.0 | 11.0 | 0.00 | 0.00 | 0.00 | 46 | 1012.2 |
| 20260509133733 | 79 | 43 | 3.0 | 10.0 | 0.00 | 0.00 | 0.00 | 48 | 1012.3 |
| 20260509131033 | 77 | 9 | 2.0 | 8.0 | 0.00 | 0.00 | 0.00 | 50 | 1012.4 |
| 20260509130133 | 75 | 100 | 5.0 | 12.0 | 0.00 | 0.00 | 0.00 | 50 | 1012.6 |
| 20260509125233 | 74 | 75 | 5.0 | 11.0 | 0.00 | 0.00 | 0.00 | 50 | 1012.7 |
| 20260509124333 | 75 | 74 | 4.0 | 11.0 | 0.00 | 0.00 | 0.00 | 50 | 1012.8 |
| 20260509123433 | 75 | 65 | 8.0 | 11.0 | 0.00 | 0.00 | 0.00 | 50 | 1012.8 |
| 20260509122533 | 76 | 340 | 4.0 | 8.0 | 0.00 | 0.00 | 0.00 | 50 | 1013.0 |
| 20260509121633 | 76 | 338 | 4.0 | 11.0 | 0.00 | 0.00 | 0.00 | 50 | 1013.0 |
| 20260509120733 | 76 | 90 | 2.0 | 11.0 | 0.00 | 0.00 | 0.00 | 51 | 1013.1 |
| 20260509115833 | 75 | 80 | 7.0 | 8.0 | 0.00 | 0.00 | 0.00 | 49 | 1013.1 |
| 20260509114933 | 75 | 65 | 2.0 | 11.0 | 0.00 | 0.00 | 0.00 | 51 | 1013.2 |
| 20260509114033 | 74 | 90 | 4.0 | 10.0 | 0.00 | 0.00 | 0.00 | 51 | 1013.2 |
| 20260509113133 | 73 | 91 | 4.0 | 9.0 | 0.00 | 0.00 | 0.00 | 51 | 1013.2 |
| 20260509112233 | 74 | 73 | 4.0 | 7.0 | 0.00 | 0.00 | 0.00 | 51 | 1013.2 |
| 20260509111333 | 73 | 93 | 4.0 | 10.0 | 0.00 | 0.00 | 0.00 | 52 | 1013.2 |
| 20260509105533 | 73 | 90 | 4.0 | 9.0 | 0.00 | 0.00 | 0.00 | 51 | 1013.5 |
| 20260509104633 | 73 | 26 | 4.0 | 8.0 | 0.00 | 0.00 | 0.00 | 51 | 1013.5 |
| 20260509103733 | 73 | 48 | 6.0 | 10.0 | 0.00 | 0.00 | 0.00 | 51 | 1013.6 |
| 20260509102833 | 73 | 56 | 8.0 | 10.0 | 0.00 | 0.00 | 0.00 | 52 | 1013.6 |
| 20260509101933 | 72 | 84 | 3.0 | 10.0 | 0.00 | 0.00 | 0.00 | 52 | 1013.8 |
| 20260509101033 | 73 | 11 | 5.0 | 10.0 | 0.00 | 0.00 | 0.00 | 53 | 1013.7 |
| 20260509100133 | 71 | 343 | 2.0 | 8.0 | 0.00 | 0.00 | 0.00 | 57 | 1013.9 |
| 20260509095234 | 71 | 7 | 2.0 | 8.0 | 0.00 | 0.00 | 0.00 | 59 | 1014.2 |
| 20260509094333 | 70 | 83 | 6.0 | 9.0 | 0.00 | 0.00 | 0.00 | 57 | 1014.1 |
| 20260509093433 | 70 | 45 | 2.0 | 11.0 | 0.00 | 0.00 | 0.00 | 59 | 1014.2 |
| 20260509092533 | 70 | 84 | 6.0 | 10.0 | 0.00 | 0.00 | 0.00 | 56 | 1014.2 |
| 20260509091633 | 69 | 64 | 4.0 | 8.0 | 0.00 | 0.00 | 0.00 | 58 | 1014.1 |
| 20260509085833 | 69 | 78 | 7.0 | 11.0 | 0.00 | 0.00 | 0.00 | 59 | 1014.0 |
| 20260509084933 | 68 | 82 | 4.0 | 10.0 | 0.00 | 0.00 | 0.00 | 60 | 1013.9 |
| 20260509084033 | 67 | 91 | 2.0 | 11.0 | 0.00 | 0.00 | 0.00 | 61 | 1013.9 |
| 20260509083133 | 66 | 86 | 4.0 | 11.0 | 0.00 | 0.00 | 0.00 | 60 | 1013.9 |
| 20260509082233 | 65 | 87 | 5.0 | 11.0 | 0.00 | 0.00 | 0.00 | 61 | 1013.8 |
| 20260509081333 | 64 | 314 | 3.0 | 8.0 | 0.00 | 0.00 | 0.00 | 61 | 1013.8 |
| 20260509080433 | 64 | 287 | 7.0 | 9.0 | 0.00 | 0.00 | 0.00 | 61 | 1014.0 |
| 20260509075533 | 64 | 93 | 6.0 | 10.0 | 0.00 | 0.00 | 0.00 | 60 | 1014.0 |
| 20260509074633 | 65 | 88 | 5.0 | 10.0 | 0.00 | 0.00 | 0.00 | 60 | 1014.1 |
| 20260509072833 | 64 | 105 | 4.0 | 11.0 | 0.00 | 0.00 | 0.00 | 62 | 1014.3 |
| 20260509071933 | 64 | 86 | 4.0 | 8.0 | 0.00 | 0.00 | 0.00 | 62 | 1014.4 |
| 20260509071033 | 63 | 98 | 4.0 | 7.0 | 0.00 | 0.00 | 0.00 | 69 | 1014.4 |
| 20260509070133 | 61 | 90 | 4.0 | 8.0 | 0.00 | 0.00 | 0.00 | 69 | 1014.4 |
| 20260509065234 | 60 | 73 | 5.0 | 8.0 | 0.00 | 0.00 | 0.00 | 70 | 1014.5 |
| 20260509064334 | 60 | 88 | 4.0 | 8.0 | 0.00 | 0.00 | 0.00 | 70 | 1014.5 |
| 20260509063433 | 59 | 91 | 4.0 | 8.0 | 0.00 | 0.00 | 0.00 | 70 | 1014.5 |
| 20260509062533 | 59 | 87 | 5.0 | 8.0 | 0.00 | 0.00 | 0.00 | 70 | 1014.5 |
| 20260509061633 | 58 | 89 | 6.0 | 8.0 | 0.00 | 0.00 | 0.00 | 71 | 1014.4 |
| 20260509060733 | 57 | 90 | 4.0 | 7.0 | 0.00 | 0.00 | 0.00 | 72 | 1014.6 |
| 20260509054933 | 55 | 90 | 3.0 | 8.0 | 0.00 | 0.00 | 0.00 | 73 | 1014.5 |
| 20260509054033 | 55 | 96 | 4.0 | 6.0 | 0.00 | 0.00 | 0.00 | 74 | 1014.4 |
| 20260509053134 | 53 | 94 | 4.0 | 6.0 | 0.00 | 0.00 | 0.00 | 78 | 1014.5 |
| 20260509052233 | 52 | 90 | 4.0 | 5.0 | 0.00 | 0.00 | 0.00 | 78 | 1014.5 |
| 20260509051333 | 52 | 83 | 4.0 | 5.0 | 0.00 | 0.00 | 0.00 | 78 | 1014.5 |
| 20260509050433 | 52 | 54 | 2.0 | 3.0 | 0.00 | 0.00 | 0.00 | 77 | 1014.4 |
| 20260509045533 | 51 | 48 | 2.0 | 2.0 | 0.00 | 0.00 | 0.00 | 76 | 1014.4 |
| 20260509044633 | 51 | 334 | 0.0 | 2.0 | 0.00 | 0.00 | 0.00 | 76 | 1014.5 |
| 20260509043733 | 51 | 336 | 1.0 | 2.0 | 0.00 | 0.00 | 0.00 | 76 | 1014.4 |
| 20260509041933 | 51 | 18 | 1.0 | 3.0 | 0.00 | 0.00 | 0.00 | 75 | 1014.1 |
| 20260509040133 | 52 | 83 | 3.0 | 4.0 | 0.00 | 0.00 | 0.00 | 75 | 1014.1 |
| 20260509035233 | 53 | 89 | 2.0 | 5.0 | 0.00 | 0.00 | 0.00 | 76 | 1014.0 |
| 20260509034333 | 53 | 90 | 3.0 | 6.0 | 0.00 | 0.00 | 0.00 | 76 | 1014.1 |
| 20260509033433 | 53 | 88 | 5.0 | 6.0 | 0.00 | 0.00 | 0.00 | 76 | 1014.0 |
| 20260509032533 | 53 | 90 | 4.0 | 5.0 | 0.00 | 0.00 | 0.00 | 76 | 1014.1 |
| 20260509031633 | 53 | 82 | 3.0 | 6.0 | 0.00 | 0.00 | 0.00 | 76 | 1014.1 |
| 20260509030733 | 53 | 85 | 3.0 | 5.0 | 0.00 | 0.00 | 0.00 | 75 | 1014.0 |
| 20260509025833 | 53 | 86 | 3.0 | 4.0 | 0.00 | 0.00 | 0.00 | 75 | 1014.1 |
| 20260509024933 | 52 | 67 | 3.0 | 4.0 | 0.00 | 0.00 | 0.00 | 74 | 1014.2 |
| 20260509024033 | 52 | 321 | 2.0 | 2.0 | 0.00 | 0.00 | 0.00 | 73 | 1014.2 |
| 20260509023133 | 52 | 318 | 1.0 | 2.0 | 0.00 | 0.00 | 0.00 | 73 | 1014.4 |
| 20260509021333 | 54 | 51 | 1.0 | 4.0 | 0.00 | 0.00 | 0.00 | 73 | 1014.5 |
| 20260509020433 | 53 | 322 | 2.0 | 2.0 | 0.00 | 0.00 | 0.00 | 73 | 1014.3 |
| 20260509015533 | 54 | 57 | 1.0 | 4.0 | 0.00 | 0.00 | 0.00 | 73 | 1014.3 |
| 20260509014633 | 54 | 90 | 2.0 | 4.0 | 0.00 | 0.00 | 0.00 | 72 | 1014.4 |
| 20260509013733 | 54 | 80 | 3.0 | 4.0 | 0.00 | 0.00 | 0.00 | 73 | 1014.4 |
| 20260509012833 | 54 | 75 | 2.0 | 4.0 | 0.00 | 0.00 | 0.00 | 70 | 1014.2 |
| 20260509011933 | 54 | 79 | 2.0 | 4.0 | 0.00 | 0.00 | 0.00 | 72 | 1014.4 |
| 20260509011033 | 54 | 7 | 0.0 | 4.0 | 0.00 | 0.00 | 0.00 | 71 | 1014.6 |
| 20260509010133 | 55 | 76 | 3.0 | 6.0 | 0.00 | 0.00 | 0.00 | 70 | 1014.4 |